QPF
0.00 0.00 0.00 0.00 0.00 0.00 0.00 0.00 0.01 0.01 0.01 0.01 0.00 0.00 0.01 0.01 0.01 0.02 0.02 0.02 0.02 0.01 0.01 0.01 0.02 0.02 0.02 0.03 0.02 0.01 0.01 0.01 0.01 0.01 0.01 0.01 0.01 0.01 0.01 0.01 0.01 0.01 0.01 0.01
0.00 0.00 0.00 0.00 0.00 0.00 0.00 0.00 0.00 0.01 0.01 0.01 0.00 0.00 0.01 0.01 0.01 0.02 0.03 0.03 0.03 0.01 0.01 0.01 0.02 0.01 0.01 0.02 0.01 0.01 0.01 0.01 0.01 0.01 0.01 0.00 0.00 0.01 0.01 0.01 0.01 0.02 0.02 0.02
0.00 0.00 0.00 0.00 0.00 0.00 0.00 0.00 0.00 0.00 0.00 0.00 0.00 0.00 0.00 0.00 0.01 0.01 0.01 0.01 0.01 0.01 0.01 0.02 0.03 0.02 0.02 0.02 0.01 0.02 0.02 0.02 0.02 0.01 0.02 0.02 0.02 0.03 0.04 0.04 0.04 0.03 0.04 0.04
0.00 0.00 0.00 0.00 0.00 0.00 0.00 0.00 0.00 0.00 0.00 0.00 0.00 0.00 0.00 0.00 0.00 0.01 0.01 0.01 0.01 0.01 0.01 0.02 0.04 0.03 0.02 0.02 0.02 0.04 0.04 0.03 0.03 0.02 0.03 0.03 0.04 0.04 0.05 0.06 0.05 0.05 0.07 0.08
0.00 0.00 0.00 0.01 0.01 0.00 0.00 0.00 0.00 0.00 0.00 0.01 0.01 0.00 0.00 0.00 0.00 0.00 0.01 0.01 0.01 0.01 0.02 0.03 0.06 0.05 0.04 0.05 0.03 0.03 0.03 0.03 0.04 0.04 0.04 0.05 0.04 0.03 0.04 0.04 0.03 0.03 0.03 0.03
0.01 0.01 0.01 0.01 0.00 0.00 0.00 0.01 0.01 0.01 0.00 0.00 0.01 0.00 0.00 0.00 0.01 0.02 0.01 0.01 0.01 0.01 0.03 0.04 0.07 0.09 0.06 0.06 0.05 0.04 0.04 0.03 0.04 0.04 0.04 0.05 0.04 0.04 0.02 0.01 0.01 0.01 0.02 0.02
0.01 0.01 0.01 0.01 0.00 0.00 0.01 0.01 0.01 0.01 0.01 0.00 0.01 0.02 0.02 0.01 0.01 0.01 0.01 0.01 0.03 0.02 0.02 0.03 0.05 0.08 0.07 0.05 0.06 0.06 0.06 0.06 0.07 0.07 0.06 0.05 0.04 0.04 0.03 0.01 0.01 0.01 0.01 0.01
0.01 0.01 0.01 0.00 0.00 0.01 0.01 0.01 0.00 0.01 0.01 0.02 0.02 0.01 0.01 0.01 0.01 0.01 0.01 0.02 0.03 0.03 0.03 0.03 0.04 0.06 0.07 0.06 0.06 0.07 0.08 0.07 0.06 0.07 0.07 0.06 0.05 0.04 0.04 0.02 0.01 0.01 0.01 0.01
0.01 0.01 0.01 0.01 0.01 0.01 0.01 0.01 0.01 0.01 0.02 0.04 0.02 0.01 0.01 0.01 0.01 0.02 0.02 0.02 0.03 0.05 0.07 0.04 0.04 0.05 0.06 0.06 0.06 0.06 0.07 0.08 0.07 0.07 0.08 0.07 0.06 0.05 0.05 0.04 0.02 0.02 0.01 0.01
0.02 0.02 0.03 0.02 0.01 0.02 0.02 0.02 0.02 0.02 0.03 0.03 0.02 0.02 0.02 0.02 0.02 0.04 0.07 0.06 0.04 0.06 0.09 0.06 0.05 0.05 0.05 0.05 0.05 0.06 0.06 0.07 0.08 0.09 0.08 0.07 0.05 0.05 0.04 0.04 0.03 0.03 0.02 0.02
0.02 0.02 0.03 0.03 0.05 0.05 0.08 0.06 0.06 0.03 0.03 0.03 0.03 0.02 0.02 0.02 0.02 0.03 0.06 0.10 0.05 0.04 0.08 0.08 0.06 0.04 0.04 0.04 0.04 0.05 0.05 0.05 0.06 0.06 0.06 0.05 0.05 0.04 0.03 0.03 0.03 0.03 0.04 0.04
0.04 0.04 0.04 0.04 0.09 0.07 0.06 0.08 0.10 0.06 0.03 0.02 0.02 0.02 0.02 0.02 0.02 0.02 0.03 0.08 0.05 0.04 0.07 0.07 0.07 0.05 0.05 0.06 0.06 0.06 0.05 0.05 0.05 0.05 0.05 0.04 0.05 0.04 0.03 0.03 0.04 0.04 0.04 0.04
0.05 0.05 0.05 0.06 0.07 0.05 0.04 0.05 0.06 0.05 0.03 0.02 0.02 0.02 0.02 0.02 0.01 0.02 0.04 0.05 0.05 0.06 0.07 0.08 0.08 0.08 0.08 0.08 0.09 0.08 0.07 0.07 0.06 0.05 0.05 0.04 0.04 0.04 0.03 0.03 0.04 0.04 0.05 0.05
0.05 0.05 0.05 0.05 0.06 0.04 0.02 0.02 0.01 0.02 0.02 0.02 0.02 0.03 0.03 0.02 0.01 0.02 0.04 0.04 0.06 0.07 0.07 0.07 0.08 0.08 0.06 0.06 0.07 0.07 0.07 0.06 0.06 0.05 0.05 0.05 0.05 0.05 0.05 0.05 0.05 0.05 0.05 0.06
0.04 0.06 0.06 0.05 0.04 0.03 0.02 0.02 0.02 0.04 0.05 0.07 0.05 0.06 0.07 0.03 0.02 0.02 0.02 0.03 0.04 0.06 0.06 0.05 0.05 0.06 0.06 0.06 0.07 0.08 0.06 0.07 0.06 0.05 0.04 0.04 0.05 0.05 0.06 0.06 0.06 0.05 0.07 0.08
0.03 0.05 0.07 0.05 0.04 0.03 0.03 0.05 0.08 0.08 0.10 0.13 0.09 0.09 0.07 0.05 0.03 0.03 0.03 0.04 0.05 0.06 0.05 0.04 0.04 0.04 0.05 0.04 0.05 0.07 0.08 0.08 0.08 0.08 0.06 0.05 0.05 0.06 0.07 0.07 0.08 0.08 0.09 0.09
0.03 0.05 0.05 0.05 0.07 0.07 0.08 0.08 0.08 0.10 0.14 0.10 0.07 0.08 0.07 0.05 0.05 0.06 0.05 0.06 0.06 0.05 0.04 0.03 0.03 0.03 0.03 0.03 0.03 0.04 0.06 0.07 0.09 0.11 0.13 0.10 0.09 0.09 0.10 0.10 0.11 0.11 0.12 0.12
0.03 0.03 0.03 0.02 0.03 0.07 0.09 0.08 0.08 0.10 0.12 0.11 0.08 0.07 0.07 0.07 0.08 0.08 0.12 0.17 0.10 0.06 0.05 0.05 0.05 0.05 0.04 0.04 0.04 0.04 0.03 0.04 0.04 0.05 0.07 0.07 0.07 0.07 0.07 0.06 0.07 0.07 0.07 0.07
0.02 0.02 0.02 0.02 0.02 0.03 0.04 0.05 0.07 0.08 0.09 0.11 0.10 0.09 0.08 0.06 0.06 0.08 0.14 0.20 0.14 0.08 0.06 0.06 0.07 0.06 0.06 0.05 0.04 0.03 0.03 0.03 0.03 0.03 0.03 0.03 0.04 0.04 0.04 0.04 0.05 0.05 0.04 0.03
0.01 0.01 0.02 0.02 0.02 0.02 0.03 0.05 0.07 0.09 0.08 0.07 0.07 0.07 0.08 0.08 0.08 0.08 0.09 0.10 0.11 0.07 0.05 0.05 0.05 0.05 0.05 0.04 0.04 0.04 0.04 0.03 0.03 0.02 0.02 0.02 0.03 0.03 0.03 0.03 0.03 0.04 0.04 0.04
0.02 0.02 0.02 0.02 0.02 0.02 0.03 0.04 0.04 0.04 0.05 0.06 0.06 0.06 0.08 0.07 0.07 0.07 0.07 0.07 0.06 0.03 0.03 0.03 0.03 0.03 0.03 0.03 0.03 0.03 0.04 0.04 0.04 0.04 0.03 0.03 0.03 0.03 0.03 0.03 0.02 0.02 0.03 0.03
0.03 0.03 0.02 0.03 0.04 0.04 0.05 0.04 0.05 0.06 0.04 0.07 0.09 0.08 0.07 0.09 0.09 0.08 0.08 0.07 0.05 0.04 0.04 0.04 0.02 0.01 0.02 0.02 0.03 0.05 0.07 0.05 0.03 0.03 0.03 0.03 0.03 0.03 0.03 0.03 0.02 0.02 0.03 0.03
0.04 0.04 0.03 0.03 0.03 0.03 0.02 0.02 0.03 0.05 0.06 0.07 0.09 0.10 0.10 0.09 0.09 0.10 0.09 0.08 0.07 0.07 0.05 0.03 0.02 0.02 0.02 0.02 0.02 0.02 0.02 0.02 0.02 0.02 0.03 0.03 0.02 0.02 0.02 0.02 0.02 0.02 0.02 0.03
0.05 0.04 0.04 0.04 0.03 0.02 0.02 0.02 0.02 0.04 0.07 0.09 0.11 0.11 0.12 0.12 0.09 0.09 0.08 0.08 0.07 0.05 0.04 0.03 0.02 0.02 0.02 0.02 0.02 0.02 0.02 0.01 0.02 0.02 0.03 0.02 0.02 0.01 0.01 0.01 0.01 0.01 0.01 0.01
0.04 0.04 0.04 0.04 0.04 0.03 0.03 0.04 0.04 0.05 0.09 0.12 0.15 0.17 0.15 0.12 0.10 0.07 0.05 0.04 0.04 0.03 0.03 0.02 0.02 0.02 0.02 0.02 0.02 0.02 0.02 0.02 0.03 0.03 0.03 0.02 0.01 0.01 0.01 0.01 0.01 0.01 0.01 0.02
0.05 0.05 0.05 0.05 0.06 0.06 0.07 0.06 0.07 0.08 0.10 0.13 0.13 0.12 0.12 0.10 0.08 0.07 0.05 0.03 0.03 0.03 0.02 0.02 0.02 0.02 0.01 0.01 0.01 0.02 0.02 0.03 0.04 0.04 0.03 0.02 0.02 0.02 0.02 0.02 0.02 0.02 0.02 0.02
0.05 0.05 0.04 0.03 0.04 0.05 0.05 0.05 0.05 0.07 0.09 0.10 0.10 0.09 0.09 0.08 0.06 0.05 0.06 0.05 0.03 0.02 0.02 0.02 0.02 0.02 0.02 0.02 0.02 0.03 0.04 0.04 0.05 0.04 0.03 0.03 0.03 0.03 0.03 0.03 0.03 0.02 0.02 0.02
MSLP
1012.28 1013.21 1014.23 1015.30 1016.36 1017.33 1018.13 1018.72 1019.06 1019.15 1019.00 1018.66 1018.21 1017.70 1017.20 1016.74 1016.35 1016.02 1015.73 1015.47 1015.21 1014.94 1014.66 1014.39 1014.13 1013.92 1013.77 1013.68 1013.64 1013.64 1013.64 1013.62 1013.54 1013.40 1013.19 1012.94 1012.67 1012.41 1012.21 1012.07 1012.00 1012.00 1012.05 1012.12
1013.17 1014.07 1014.97 1015.84 1016.64 1017.35 1017.93 1018.38 1018.67 1018.82 1018.84 1018.76 1018.60 1018.40 1018.17 1017.93 1017.67 1017.39 1017.07 1016.72 1016.34 1015.94 1015.55 1015.18 1014.86 1014.62 1014.45 1014.34 1014.29 1014.25 1014.18 1014.08 1013.90 1013.65 1013.33 1012.98 1012.64 1012.32 1012.07 1011.89 1011.80 1011.78 1011.81 1011.85
1014.10 1014.95 1015.72 1016.38 1016.94 1017.40 1017.77 1018.06 1018.29 1018.47 1018.61 1018.73 1018.83 1018.89 1018.91 1018.86 1018.75 1018.54 1018.25 1017.87 1017.43 1016.96 1016.50 1016.08 1015.72 1015.45 1015.25 1015.12 1015.03 1014.92 1014.79 1014.59 1014.32 1013.97 1013.57 1013.16 1012.76 1012.41 1012.15 1011.98 1011.90 1011.88 1011.91 1011.93
1014.97 1015.72 1016.34 1016.81 1017.15 1017.40 1017.57 1017.72 1017.88 1018.07 1018.30 1018.56 1018.84 1019.11 1019.33 1019.47 1019.49 1019.39 1019.16 1018.82 1018.38 1017.91 1017.43 1017.00 1016.63 1016.34 1016.12 1015.95 1015.80 1015.63 1015.41 1015.13 1014.77 1014.35 1013.90 1013.45 1013.05 1012.72 1012.49 1012.37 1012.33 1012.35 1012.40 1012.43
1015.63 1016.26 1016.72 1017.01 1017.17 1017.24 1017.28 1017.33 1017.43 1017.62 1017.90 1018.26 1018.67 1019.09 1019.47 1019.76 1019.92 1019.93 1019.79 1019.52 1019.15 1018.73 1018.29 1017.88 1017.53 1017.23 1016.99 1016.78 1016.57 1016.33 1016.04 1015.68 1015.26 1014.80 1014.34 1013.90 1013.54 1013.27 1013.11 1013.07 1013.10 1013.18 1013.28 1013.33
1015.99 1016.47 1016.77 1016.93 1016.96 1016.92 1016.88 1016.87 1016.95 1017.15 1017.47 1017.91 1018.41 1018.94 1019.42 1019.83 1020.10 1020.23 1020.20 1020.03 1019.76 1019.41 1019.05 1018.70 1018.38 1018.09 1017.84 1017.60 1017.34 1017.03 1016.68 1016.27 1015.82 1015.35 1014.90 1014.52 1014.22 1014.05 1013.99 1014.03 1014.15 1014.30 1014.44 1014.52
1016.01 1016.32 1016.50 1016.56 1016.53 1016.46 1016.40 1016.40 1016.51 1016.75 1017.12 1017.61 1018.17 1018.77 1019.33 1019.81 1020.18 1020.40 1020.47 1020.41 1020.25 1020.01 1019.74 1019.46 1019.18 1018.92 1018.66 1018.39 1018.09 1017.75 1017.36 1016.92 1016.47 1016.03 1015.63 1015.32 1015.12 1015.04 1015.08 1015.21 1015.41 1015.61 1015.78 1015.87
1015.71 1015.89 1015.98 1016.00 1015.97 1015.93 1015.93 1016.01 1016.19 1016.50 1016.94 1017.48 1018.09 1018.72 1019.33 1019.86 1020.28 1020.57 1020.73 1020.77 1020.71 1020.57 1020.38 1020.17 1019.95 1019.71 1019.46 1019.18 1018.86 1018.49 1018.09 1017.66 1017.24 1016.84 1016.52 1016.29 1016.18 1016.19 1016.31 1016.51 1016.75 1016.98 1017.16 1017.23
1015.19 1015.28 1015.34 1015.37 1015.41 1015.47 1015.59 1015.79 1016.09 1016.51 1017.02 1017.61 1018.26 1018.91 1019.53 1020.08 1020.52 1020.86 1021.08 1021.18 1021.19 1021.13 1021.02 1020.87 1020.68 1020.47 1020.23 1019.95 1019.63 1019.27 1018.89 1018.49 1018.11 1017.79 1017.54 1017.39 1017.36 1017.43 1017.60 1017.82 1018.07 1018.28 1018.42 1018.47
1014.63 1014.67 1014.74 1014.84 1014.99 1015.20 1015.47 1015.83 1016.28 1016.80 1017.40 1018.04 1018.71 1019.36 1019.97 1020.51 1020.96 1021.30 1021.54 1021.69 1021.75 1021.73 1021.67 1021.55 1021.40 1021.21 1020.98 1020.71 1020.40 1020.06 1019.71 1019.36 1019.05 1018.80 1018.62 1018.54 1018.56 1018.66 1018.83 1019.04 1019.24 1019.40 1019.48 1019.46
1014.17 1014.23 1014.36 1014.56 1014.84 1015.21 1015.65 1016.17 1016.75 1017.38 1018.05 1018.74 1019.41 1020.05 1020.63 1021.14 1021.56 1021.89 1022.13 1022.28 1022.35 1022.36 1022.32 1022.22 1022.08 1021.90 1021.67 1021.41 1021.12 1020.82 1020.52 1020.23 1019.98 1019.79 1019.68 1019.64 1019.68 1019.78 1019.91 1020.06 1020.18 1020.25 1020.24 1020.14
1013.94 1014.06 1014.27 1014.59 1015.02 1015.53 1016.11 1016.76 1017.45 1018.16 1018.88 1019.58 1020.24 1020.85 1021.39 1021.86 1022.24 1022.54 1022.76 1022.90 1022.97 1022.98 1022.93 1022.83 1022.69 1022.50 1022.28 1022.03 1021.77 1021.50 1021.24 1021.01 1020.82 1020.68 1020.60 1020.59 1020.61 1020.68 1020.75 1020.81 1020.83 1020.79 1020.68 1020.49
1013.98 1014.19 1014.51 1014.93 1015.47 1016.09 1016.78 1017.52 1018.27 1019.02 1019.74 1020.43 1021.06 1021.63 1022.12 1022.54 1022.89 1023.16 1023.35 1023.47 1023.53 1023.53 1023.47 1023.35 1023.20 1023.01 1022.78 1022.54 1022.29 1022.05 1021.83 1021.64 1021.49 1021.38 1021.32 1021.30 1021.30 1021.30 1021.29 1021.25 1021.16 1021.02 1020.81 1020.55
1014.27 1014.57 1014.98 1015.50 1016.12 1016.81 1017.55 1018.31 1019.07 1019.81 1020.51 1021.16 1021.74 1022.26 1022.71 1023.08 1023.39 1023.64 1023.81 1023.92 1023.97 1023.95 1023.88 1023.76 1023.59 1023.38 1023.15 1022.91 1022.67 1022.44 1022.24 1022.08 1021.95 1021.86 1021.79 1021.74 1021.69 1021.63 1021.53 1021.39 1021.20 1020.96 1020.66 1020.34
1014.71 1015.10 1015.59 1016.18 1016.84 1017.55 1018.29 1019.04 1019.77 1020.45 1021.09 1021.68 1022.20 1022.67 1023.07 1023.41 1023.70 1023.93 1024.10 1024.20 1024.25 1024.23 1024.15 1024.02 1023.84 1023.63 1023.39 1023.14 1022.90 1022.68 1022.49 1022.33 1022.20 1022.09 1022.00 1021.91 1021.80 1021.66 1021.48 1021.25 1020.97 1020.65 1020.29 1019.91
1015.18 1015.65 1016.21 1016.84 1017.52 1018.22 1018.93 1019.62 1020.29 1020.90 1021.47 1021.98 1022.44 1022.85 1023.21 1023.53 1023.81 1024.03 1024.20 1024.32 1024.37 1024.36 1024.29 1024.15 1023.97 1023.75 1023.51 1023.26 1023.01 1022.78 1022.58 1022.41 1022.26 1022.12 1021.99 1021.84 1021.66 1021.45 1021.19 1020.88 1020.53 1020.14 1019.73 1019.32
1015.58 1016.13 1016.74 1017.40 1018.08 1018.77 1019.43 1020.06 1020.64 1021.18 1021.66 1022.10 1022.50 1022.86 1023.19 1023.49 1023.76 1023.99 1024.17 1024.30 1024.36 1024.36 1024.30 1024.17 1023.99 1023.77 1023.53 1023.27 1023.02 1022.78 1022.55 1022.35 1022.16 1021.98 1021.79 1021.58 1021.33 1021.04 1020.71 1020.33 1019.91 1019.47 1019.02 1018.58
1015.86 1016.48 1017.14 1017.83 1018.51 1019.17 1019.79 1020.36 1020.88 1021.34 1021.76 1022.13 1022.47 1022.79 1023.09 1023.37 1023.63 1023.86 1024.05 1024.19 1024.27 1024.28 1024.22 1024.10 1023.93 1023.71 1023.47 1023.20 1022.94 1022.68 1022.43 1022.20 1021.96 1021.72 1021.46 1021.18 1020.85 1020.49 1020.08 1019.64 1019.17 1018.68 1018.20 1017.73
1016.03 1016.71 1017.42 1018.14 1018.83 1019.48 1020.08 1020.61 1021.07 1021.48 1021.83 1022.15 1022.45 1022.72 1022.99 1023.25 1023.49 1023.71 1023.89 1024.02 1024.10 1024.11 1024.06 1023.95 1023.78 1023.57 1023.32 1023.05 1022.78 1022.50 1022.22 1021.95 1021.66 1021.36 1021.03 1020.67 1020.28 1019.84 1019.36 1018.85 1018.34 1017.81 1017.29 1016.79
1016.12 1016.86 1017.62 1018.38 1019.09 1019.75 1020.33 1020.84 1021.27 1021.63 1021.94 1022.22 1022.47 1022.71 1022.93 1023.16 1023.37 1023.55 1023.71 1023.83 1023.89 1023.89 1023.83 1023.71 1023.53 1023.32 1023.08 1022.80 1022.52 1022.22 1021.92 1021.60 1021.27 1020.91 1020.51 1020.08 1019.61 1019.10 1018.56 1018.00 1017.43 1016.87 1016.32 1015.79
1016.23 1017.02 1017.83 1018.61 1019.34 1020.00 1020.58 1021.07 1021.47 1021.81 1022.09 1022.32 1022.53 1022.72 1022.91 1023.09 1023.25 1023.39 1023.50 1023.58 1023.60 1023.57 1023.49 1023.36 1023.17 1022.96 1022.70 1022.43 1022.13 1021.82 1021.49 1021.14 1020.76 1020.34 1019.89 1019.39 1018.86 1018.29 1017.70 1017.09 1016.48 1015.89 1015.32 1014.78
1016.42 1017.24 1018.06 1018.86 1019.59 1020.25 1020.81 1021.28 1021.66 1021.97 1022.21 1022.41 1022.58 1022.72 1022.86 1022.98 1023.09 1023.17 1023.23 1023.25 1023.23 1023.16 1023.04 1022.88 1022.68 1022.44 1022.18 1021.89 1021.58 1021.25 1020.90 1020.51 1020.09 1019.64 1019.13 1018.59 1018.01 1017.40 1016.77 1016.14 1015.51 1014.91 1014.34 1013.79
1016.72 1017.54 1018.35 1019.12 1019.83 1020.46 1020.98 1021.42 1021.76 1022.03 1022.24 1022.40 1022.52 1022.63 1022.71 1022.78 1022.83 1022.85 1022.85 1022.81 1022.73 1022.61 1022.46 1022.26 1022.03 1021.77 1021.48 1021.18 1020.85 1020.50 1020.12 1019.71 1019.26 1018.77 1018.24 1017.67 1017.06 1016.43 1015.79 1015.16 1014.54 1013.95 1013.39 1012.87
1017.12 1017.90 1018.66 1019.38 1020.02 1020.58 1021.05 1021.42 1021.72 1021.93 1022.10 1022.22 1022.30 1022.36 1022.41 1022.43 1022.43 1022.41 1022.35 1022.26 1022.13 1021.96 1021.75 1021.51 1021.24 1020.95 1020.64 1020.30 1019.95 1019.57 1019.17 1018.73 1018.27 1017.76 1017.22 1016.64 1016.03 1015.41 1014.79 1014.18 1013.59 1013.03 1012.52 1012.05
1017.56 1018.27 1018.94 1019.56 1020.11 1020.57 1020.95 1021.24 1021.47 1021.63 1021.75 1021.83 1021.88 1021.91 1021.93 1021.92 1021.89 1021.83 1021.73 1021.60 1021.43 1021.21 1020.96 1020.67 1020.36 1020.03 1019.67 1019.30 1018.91 1018.50 1018.07 1017.62 1017.14 1016.63 1016.09 1015.53 1014.95 1014.36 1013.78 1013.22 1012.69 1012.20 1011.75 1011.34
1017.97 1018.57 1019.13 1019.62 1020.05 1020.40 1020.67 1020.88 1021.03 1021.14 1021.21 1021.26 1021.29 1021.31 1021.31 1021.29 1021.24 1021.17 1021.05 1020.89 1020.68 1020.43 1020.14 1019.80 1019.44 1019.05 1018.65 1018.23 1017.80 1017.35 1016.90 1016.43 1015.94 1015.43 1014.92 1014.39 1013.85 1013.33 1012.81 1012.32 1011.87 1011.45 1011.07 1010.73
1018.26 1018.74 1019.17 1019.54 1019.84 1020.07 1020.24 1020.36 1020.44 1020.50 1020.54 1020.57 1020.59 1020.61 1020.62 1020.61 1020.57 1020.49 1020.36 1020.19 1019.96 1019.67 1019.34 1018.96 1018.54 1018.10 1017.64 1017.17 1016.69 1016.21 1015.72 1015.23 1014.74 1014.26 1013.77 1013.28 1012.81 1012.35 1011.91 1011.51 1011.13 1010.79 1010.49 1010.22
Thickness
5779 5791 5797 5798 5801 5803 5795 5787 5777 5783 5789 5801 5812 5818 5821 5822 5822 5821 5820 5819 5819 5820 5819 5819 5818 5816 5815 5813 5810 5808 5803 5799 5796 5794 5792 5789 5785 5783 5781 5779 5777 5774 5771 5768
5770 5787 5791 5791 5798 5801 5801 5800 5794 5793 5794 5812 5817 5819 5818 5818 5818 5816 5816 5817 5817 5817 5817 5815 5815 5814 5812 5810 5808 5805 5801 5797 5795 5792 5789 5786 5783 5780 5778 5775 5773 5770 5766 5764
5746 5768 5774 5766 5787 5794 5794 5801 5798 5786 5796 5810 5808 5810 5812 5814 5815 5814 5815 5816 5814 5814 5814 5814 5814 5813 5810 5808 5805 5801 5797 5794 5792 5789 5785 5783 5780 5776 5773 5770 5768 5765 5761 5759
5735 5747 5738 5765 5796 5800 5794 5796 5801 5799 5802 5806 5808 5812 5815 5816 5814 5813 5813 5812 5812 5811 5812 5812 5812 5810 5808 5804 5801 5797 5794 5791 5788 5785 5782 5779 5776 5773 5770 5767 5763 5761 5758 5755
5720 5723 5736 5766 5789 5792 5784 5780 5796 5796 5799 5804 5808 5805 5803 5811 5814 5814 5813 5812 5811 5811 5810 5809 5807 5806 5803 5798 5795 5792 5790 5788 5786 5782 5779 5775 5771 5769 5766 5763 5759 5757 5754 5751
5716 5717 5719 5752 5785 5797 5786 5762 5787 5792 5792 5797 5797 5779 5786 5805 5809 5810 5811 5811 5809 5808 5806 5803 5802 5800 5795 5792 5788 5786 5785 5784 5783 5780 5776 5772 5769 5765 5762 5759 5755 5752 5749 5747
5710 5710 5725 5762 5783 5785 5751 5752 5781 5787 5789 5790 5786 5786 5794 5801 5803 5804 5805 5805 5805 5802 5799 5797 5796 5793 5787 5785 5783 5784 5783 5781 5779 5775 5772 5769 5765 5761 5757 5753 5749 5745 5742 5741
5702 5701 5716 5763 5768 5759 5757 5772 5779 5782 5785 5784 5785 5788 5791 5793 5795 5795 5795 5796 5796 5793 5791 5790 5789 5785 5779 5778 5780 5779 5776 5774 5771 5769 5767 5764 5759 5755 5751 5746 5741 5738 5736 5734
5709 5715 5738 5752 5755 5760 5766 5767 5772 5774 5778 5779 5778 5777 5781 5783 5785 5787 5787 5787 5787 5785 5782 5781 5781 5778 5772 5773 5773 5771 5767 5765 5763 5761 5759 5757 5753 5748 5744 5740 5735 5733 5730 5727
5709 5719 5731 5741 5749 5754 5760 5763 5767 5771 5771 5771 5768 5770 5772 5773 5775 5776 5778 5778 5778 5776 5772 5770 5770 5769 5768 5768 5766 5763 5759 5757 5755 5752 5749 5748 5746 5743 5739 5735 5731 5728 5725 5722
5700 5712 5722 5731 5737 5745 5751 5756 5759 5762 5764 5763 5762 5761 5763 5763 5765 5766 5768 5769 5768 5766 5763 5761 5761 5761 5760 5760 5758 5754 5752 5749 5746 5744 5741 5738 5736 5735 5733 5732 5729 5725 5721 5718
5690 5704 5708 5715 5728 5737 5740 5743 5746 5749 5751 5754 5755 5753 5753 5753 5755 5756 5757 5758 5757 5756 5754 5752 5752 5751 5752 5751 5750 5746 5742 5740 5738 5735 5733 5730 5726 5724 5724 5723 5722 5720 5717 5714
5699 5707 5710 5716 5723 5728 5730 5734 5737 5739 5740 5741 5743 5745 5744 5744 5745 5746 5746 5746 5745 5745 5744 5742 5742 5741 5742 5742 5741 5737 5734 5732 5730 5727 5724 5721 5719 5716 5713 5712 5711 5710 5708 5705
5700 5702 5702 5707 5712 5718 5722 5726 5728 5729 5731 5733 5733 5735 5735 5735 5736 5736 5736 5736 5738 5737 5735 5734 5732 5732 5733 5733 5731 5728 5726 5724 5722 5719 5717 5715 5712 5709 5706 5702 5699 5698 5697 5695
5692 5696 5696 5702 5705 5708 5712 5714 5714 5715 5718 5720 5722 5723 5724 5724 5725 5726 5728 5730 5729 5727 5725 5724 5722 5722 5723 5723 5721 5718 5716 5714 5711 5710 5708 5706 5704 5701 5698 5695 5692 5689 5688 5685
5684 5688 5691 5692 5694 5697 5700 5701 5702 5703 5706 5708 5709 5712 5714 5715 5716 5717 5718 5720 5718 5716 5715 5715 5713 5714 5714 5712 5711 5708 5706 5704 5702 5700 5698 5696 5694 5691 5688 5686 5684 5681 5679 5677
5671 5673 5677 5680 5684 5686 5689 5691 5693 5694 5696 5698 5699 5702 5703 5704 5704 5705 5706 5708 5709 5707 5707 5705 5705 5705 5704 5703 5701 5699 5697 5695 5693 5690 5689 5688 5685 5682 5680 5677 5675 5673 5671 5670
5670 5672 5674 5676 5678 5680 5683 5685 5686 5687 5688 5691 5692 5692 5692 5693 5692 5693 5693 5695 5694 5694 5695 5696 5697 5696 5695 5694 5692 5690 5688 5686 5684 5682 5680 5679 5677 5675 5672 5669 5667 5665 5662 5660
5665 5667 5669 5671 5673 5674 5676 5677 5678 5680 5681 5683 5683 5683 5683 5684 5684 5684 5684 5683 5681 5680 5683 5686 5686 5685 5685 5684 5683 5681 5679 5678 5676 5674 5672 5670 5668 5666 5663 5661 5658 5656 5653 5651
5659 5662 5663 5665 5667 5667 5668 5670 5672 5672 5673 5675 5675 5674 5673 5674 5675 5674 5673 5671 5671 5672 5675 5676 5675 5675 5674 5673 5672 5671 5670 5668 5666 5664 5662 5660 5659 5657 5655 5653 5650 5647 5644 5641
5650 5653 5655 5656 5657 5660 5662 5663 5663 5663 5664 5665 5664 5664 5664 5665 5666 5664 5662 5659 5662 5665 5666 5666 5665 5665 5665 5663 5662 5661 5659 5658 5657 5655 5653 5651 5649 5647 5645 5643 5641 5638 5635 5631
5640 5642 5645 5647 5649 5651 5654 5655 5656 5656 5657 5657 5657 5657 5655 5655 5655 5654 5654 5653 5654 5656 5656 5655 5655 5656 5655 5653 5651 5650 5649 5648 5647 5645 5644 5642 5639 5637 5634 5632 5629 5627 5623 5620
5633 5635 5637 5639 5640 5642 5646 5647 5648 5648 5648 5649 5649 5648 5647 5646 5645 5645 5644 5647 5647 5647 5646 5645 5645 5645 5644 5642 5640 5639 5639 5638 5636 5635 5633 5632 5630 5627 5625 5622 5619 5616 5612 5609
5627 5628 5630 5632 5633 5634 5635 5638 5640 5641 5641 5641 5642 5641 5640 5638 5638 5639 5640 5641 5640 5639 5638 5636 5636 5636 5635 5633 5631 5629 5628 5627 5625 5624 5623 5621 5619 5616 5614 5611 5608 5605 5601 5598
5621 5623 5625 5625 5625 5626 5628 5630 5632 5632 5632 5632 5633 5634 5633 5632 5631 5632 5632 5633 5633 5632 5630 5630 5629 5628 5627 5624 5622 5620 5618 5616 5614 5612 5610 5609 5607 5605 5602 5599 5596 5593 5590 5586
5615 5617 5618 5620 5620 5621 5621 5622 5622 5622 5623 5623 5624 5625 5625 5625 5626 5625 5625 5625 5625 5623 5622 5621 5620 5619 5617 5615 5613 5611 5608 5606 5604 5603 5600 5597 5595 5592 5590 5587 5585 5581 5577 5573
5610 5611 5612 5613 5614 5615 5615 5615 5615 5615 5615 5616 5615 5616 5617 5618 5618 5618 5617 5616 5615 5614 5613 5612 5611 5609 5608 5605 5603 5601 5599 5597 5595 5593 5590 5586 5583 5580 5578 5576 5573 5569 5565 5561